This is the latest recevied weather packets stored in our database for station/object SP1BMW-13. If no packets are shown the sender has not sent any weather packets the latest 10 day(s).
| Time | Temp. | Humidity | Pressure | Rain* | Wind** | Luminosity | Snow |
|---|---|---|---|---|---|---|---|
| 1787637337 | 13.33° C | 99% | 1019 hPa | 0 mm | 0 m/s | 91 W/m² | - |
| 1787637276 | 13.33° C | 99% | 1019.1 hPa | 0 mm | 0 m/s | 91 W/m² | - |
| 1787637216 | 12.78° C | 99% | 1019 hPa | 0 mm | 0 m/s | 92 W/m² | - |
| 1787637156 | 12.78° C | 99% | 1019.2 hPa | 0 mm | 0 m/s | 89 W/m² | - |
| 1787637096 | 12.78° C | 99% | 1018.9 hPa | 0 mm | 0 m/s | 85 W/m² | - |
| 1787637037 | 12.78° C | 99% | 1019.1 hPa | 0 mm | 0 m/s | 83 W/m² | - |
| 1787636976 | 12.78° C | 99% | 1019.1 hPa | 0 mm | 0 m/s | 80 W/m² | - |
| 1787636917 | 12.78° C | 99% | 1019.1 hPa | 0 mm | 0 m/s | 76 W/m² | - |
| 1787636856 | 12.78° C | 99% | 1019 hPa | 0 mm | 0 m/s | 73 W/m² | - |
| 1787636796 | 12.78° C | 99% | 1019.2 hPa | 0 mm | 0 m/s | 71 W/m² | - |
| 1787636737 | 12.78° C | 99% | 1018.9 hPa | 0 mm | 0 m/s | 72 W/m² | - |
| 1787636679 | 12.78° C | 99% | 1019.1 hPa | 0 mm | 0 m/s | 73 W/m² | - |
| 1787636617 | 12.22° C | 99% | 1019 hPa | 0 mm | 0 m/s | 71 W/m² | - |
| 1787636559 | 12.22° C | 99% | 1019.1 hPa | 0 mm | 0 m/s | 72 W/m² | - |
| 1787636497 | 12.22° C | 99% | 1019.1 hPa | 0 mm | 0 m/s | 79 W/m² | - |
| 1787636436 | 12.22° C | 99% | 1018.8 hPa | 0 mm | 0 m/s | 83 W/m² | - |
| 1787636378 | 12.22° C | 99% | 1018.9 hPa | 0 mm | 0 m/s | 81 W/m² | - |
| 1787636316 | 12.22° C | 99% | 1018.9 hPa | 0 mm | 0 m/s | 81 W/m² | - |
| 1787636259 | 12.22° C | 99% | 1018.9 hPa | 0 mm | 0 m/s | 80 W/m² | - |
| 1787636196 | 12.22° C | 99% | 1019.1 hPa | 0 mm | 0 m/s | 78 W/m² | - |
| 1787636137 | 11.67° C | 99% | 1018.9 hPa | 0 mm | 0 m/s | 79 W/m² | - |
| 1787636076 | 11.67° C | 99% | 1018.9 hPa | 0 mm | 0 m/s | 77 W/m² | - |
| 1787636016 | 11.67° C | 99% | 1018.8 hPa | 0 mm | 0 m/s | 68 W/m² | - |
| 1787635956 | 11.67° C | 99% | 1018.9 hPa | 0 mm | 0 m/s | 65 W/m² | - |
| 1787635899 | 11.67° C | 99% | 1019 hPa | 0 mm | 0 m/s | 61 W/m² | - |
* Rain latest hour (hover to see other rain measurements)
** Current wind speed in m/s (hover to see current wind gust speed)